• In Russia
  • List of Countries
  • For 7 days
  • Water Temperature
  • Satellite Maps
  • Weather Map
  • Weather Widgets
  • user-avatar
    Login

    Hourly Weather Anacki

    Today, 21 October, Sunday

    Time Temperature Precipitation Wind Pressure Humidity
    00:00 +8°C° 0 mm 1 mps 755 mmHg 73%
    01:00 +8°C° 0 mm 1 mps 755 mmHg 75%
    02:00 +7°C° 0 mm 1 mps 755 mmHg 77%
    03:00 +7°C° 0 mm 1 mps 755 mmHg 79%
    04:00 +6°C° 0 mm 1 mps 756 mmHg 81%
    05:00 +6°C° 0 mm 1 mps 756 mmHg 83%
    06:00 +6°C° 0 mm 1 mps 756 mmHg 83%
    07:00 +6°C° 0 mm 1 mps 756 mmHg 84%
    08:00 +5°C° 0 mm 2 mps 757 mmHg 83%
    09:00 +8°C° 0 mm 1 mps 757 mmHg 77%
    10:00 +9°C° 0 mm 1 mps 757 mmHg 71%
    11:00 +10°C° 0 mm 1 mps 757 mmHg 65%
    12:00 +11°C° 0 mm 1 mps 757 mmHg 63%
    13:00 +11°C° 0 mm 1 mps 757 mmHg 61%
    14:00 +12°C° 0 mm 1 mps 757 mmHg 58%
    15:00 +11°C° 0 mm 1 mps 757 mmHg 63%
    16:00 +10°C° 0 mm 1 mps 757 mmHg 67%
    17:00 +9°C° 0 mm 1 mps 757 mmHg 71%
    18:00 +9°C° 0 mm 1 mps 757 mmHg 73%
    19:00 +8°C° 0 mm 1 mps 757 mmHg 75%
    20:00 +7°C° 0 mm 0 mps 757 mmHg 77%
    21:00 +8°C° 0 mm 1 mps 758 mmHg 78%
    22:00 +8°C° 0 mm 1 mps 758 mmHg 79%
    23:00 +7°C° 0 mm 1 mps 758 mmHg 80%

    Tomorrow, 22 October, Monday

    Time Temperature Precipitation Wind Pressure Humidity
    00:00 +7°C° 0 mm 1 mps 758 mmHg 81%
    01:00 +7°C° 0 mm 1 mps 757 mmHg 82%
    02:00 +6°C° 0 mm 1 mps 757 mmHg 83%
    03:00 +5°C° 0 mm 2 mps 757 mmHg 85%
    04:00 +5°C° 0 mm 2 mps 757 mmHg 86%
    05:00 +4°C° 0 mm 2 mps 756 mmHg 87%
    06:00 +5°C° 0 mm 2 mps 756 mmHg 87%
    07:00 +5°C° 0 mm 2 mps 756 mmHg 87%
    08:00 +4°C° 0 mm 3 mps 756 mmHg 87%
    09:00 +5°C° 0 mm 3 mps 755 mmHg 81%
    10:00 +7°C° 0 mm 4 mps 755 mmHg 75%
    11:00 +8°C° 0 mm 4 mps 755 mmHg 69%
    12:00 +10°C° 0 mm 4 mps 754 mmHg 66%
    13:00 +9°C° 0 mm 5 mps 753 mmHg 64%
    14:00 +10°C° 0 mm 5 mps 753 mmHg 62%
    15:00 +10°C° 0 mm 4 mps 752 mmHg 65%
    16:00 +8°C° 0 mm 4 mps 751 mmHg 69%
    17:00 +8°C° 0 mm 4 mps 751 mmHg 72%
    18:00 +8°C° 0.1 mm 4 mps 751 mmHg 74%
    19:00 +8°C° 0.1 mm 4 mps 750 mmHg 77%
    20:00 +8°C° 0.1 mm 4 mps 750 mmHg 79%
    21:00 +7°C° 0.4 mm 4 mps 750 mmHg 81%
    22:00 +7°C° 0.4 mm 4 mps 750 mmHg 84%
    23:00 +7°C° 0.4 mm 4 mps 750 mmHg 86%

    Day after tomorrow, 23 October, Tuesday

    Time Temperature Precipitation Wind Pressure Humidity
    00:00 +6°C° 0 mm 4 mps 750 mmHg 88%
    01:00 +5°C° 0 mm 3 mps 750 mmHg 90%
    02:00 +4°C° 0 mm 3 mps 750 mmHg 91%
    03:00 +3°C° 0 mm 3 mps 749 mmHg 91%
    04:00 +3°C° 0 mm 3 mps 749 mmHg 91%
    05:00 +3°C° 0 mm 2 mps 749 mmHg 92%
    06:00 +2°C° 0 mm 3 mps 749 mmHg 90%
    07:00 +3°C° 0 mm 3 mps 748 mmHg 88%
    08:00 +3°C° 0 mm 3 mps 748 mmHg 86%
    09:00 +4°C° 0 mm 3 mps 747 mmHg 82%
    10:00 +5°C° 0 mm 4 mps 747 mmHg 77%
    11:00 +6°C° 0 mm 5 mps 746 mmHg 73%
    12:00 +6°C° 0.1 mm 5 mps 744 mmHg 72%
    13:00 +7°C° 0.1 mm 6 mps 743 mmHg 71%
    14:00 +6°C° 0.1 mm 7 mps 742 mmHg 70%
    15:00 +5°C° 0.1 mm 7 mps 740 mmHg 71%
    16:00 +5°C° 0.1 mm 7 mps 739 mmHg 73%
    17:00 +4°C° 0.1 mm 7 mps 737 mmHg 74%
    18:00 +4°C° 0.9 mm 8 mps 736 mmHg 77%
    19:00 +4°C° 0.9 mm 8 mps 734 mmHg 80%
    20:00 +4°C° 0.9 mm 8 mps 732 mmHg 83%
    21:00 +4°C° 1 mm 7 mps 731 mmHg 85%
    22:00 +4°C° 1 mm 7 mps 729 mmHg 87%
    23:00 +5°C° 1 mm 6 mps 728 mmHg 89%

    24 October, Wednesday

    Time Temperature Precipitation Wind Pressure Humidity
    00:00 +5°C° 0.5 mm 6 mps 727 mmHg 89%
    01:00 +5°C° 0.5 mm 6 mps 727 mmHg 89%
    02:00 +5°C° 0.5 mm 6 mps 726 mmHg 89%
    03:00 +6°C° 0.3 mm 5 mps 726 mmHg 88%
    04:00 +6°C° 0.3 mm 5 mps 725 mmHg 88%
    05:00 +5°C° 0.3 mm 5 mps 725 mmHg 88%
    06:00 +5°C° 0.2 mm 5 mps 725 mmHg 87%
    07:00 +5°C° 0.2 mm 5 mps 725 mmHg 87%
    08:00 +5°C° 0.2 mm 5 mps 725 mmHg 87%
    09:00 +4°C° 0.1 mm 6 mps 725 mmHg 83%
    10:00 +4°C° 0.1 mm 7 mps 725 mmHg 79%
    11:00 +5°C° 0.1 mm 7 mps 725 mmHg 76%
    12:00 +5°C° 0.4 mm 7 mps 726 mmHg 77%
    13:00 +5°C° 0.4 mm 7 mps 726 mmHg 78%
    14:00 +5°C° 0.4 mm 7 mps 726 mmHg 80%
    15:00 +5°C° 0.4 mm 7 mps 726 mmHg 81%
    16:00 +5°C° 0.4 mm 7 mps 727 mmHg 82%
    17:00 +5°C° 0.4 mm 7 mps 727 mmHg 83%
    18:00 +5°C° 0.3 mm 7 mps 728 mmHg 83%
    19:00 +4°C° 0.3 mm 7 mps 729 mmHg 84%
    20:00 +4°C° 0.3 mm 7 mps 730 mmHg 84%
    21:00 +4°C° 0.2 mm 7 mps 731 mmHg 83%
    22:00 +4°C° 0.2 mm 8 mps 732 mmHg 82%
    23:00 +4°C° 0.2 mm 8 mps 733 mmHg 80%

    25 October, Thursday

    Time Temperature Precipitation Wind Pressure Humidity
    00:00 +4°C° 0.1 mm 8 mps 734 mmHg 80%
    01:00 +2°C° 0.1 mm 8 mps 735 mmHg 80%
    02:00 +2°C° 0.1 mm 8 mps 736 mmHg 80%
    03:00 +2°C° 0 mm 8 mps 737 mmHg 79%
    04:00 +2°C° 0 mm 8 mps 738 mmHg 78%
    05:00 +3°C° 0 mm 7 mps 738 mmHg 78%
    06:00 +3°C° 0 mm 7 mps 739 mmHg 79%
    07:00 +2°C° 0 mm 7 mps 739 mmHg 81%
    08:00 +2°C° 0 mm 7 mps 740 mmHg 83%
    09:00 +3°C° 0 mm 7 mps 740 mmHg 80%
    10:00 +4°C° 0 mm 7 mps 740 mmHg 77%
    11:00 +4°C° 0 mm 7 mps 740 mmHg 74%
    12:00 +5°C° 0 mm 7 mps 740 mmHg 70%
    13:00 +5°C° 0 mm 7 mps 740 mmHg 66%
    14:00 +6°C° 0 mm 7 mps 740 mmHg 62%
    15:00 +5°C° 0 mm 6 mps 740 mmHg 65%
    16:00 +5°C° 0 mm 4 mps 739 mmHg 68%
    17:00 +5°C° 0 mm 3 mps 739 mmHg 72%
    18:00 +5°C° 0.1 mm 3 mps 739 mmHg 76%
    19:00 +4°C° 0.1 mm 3 mps 739 mmHg 81%
    20:00 +5°C° 0.1 mm 2 mps 738 mmHg 85%
    21:00 +5°C° 0 mm 2 mps 738 mmHg 88%
    22:00 +5°C° 0 mm 2 mps 738 mmHg 91%
    23:00 +5°C° 0 mm 2 mps 738 mmHg 94%

    26 October, Friday

    Time Temperature Precipitation Wind Pressure Humidity
    00:00 +5°C° 0 mm 2 mps 738 mmHg 95%
    01:00 +5°C° 0 mm 2 mps 738 mmHg 96%
    02:00 +5°C° 0 mm 2 mps 738 mmHg 97%
    03:00 +5°C° 0 mm 2 mps 738 mmHg 97%
    04:00 +5°C° 0 mm 2 mps 739 mmHg 97%
    05:00 +5°C° 0 mm 2 mps 739 mmHg 97%
    06:00 +5°C° 0.1 mm 2 mps 739 mmHg 96%
    07:00 +5°C° 0.1 mm 3 mps 739 mmHg 95%
    08:00 +5°C° 0.1 mm 3 mps 740 mmHg 95%
    09:00 +7°C° 0 mm 3 mps 740 mmHg 88%
    10:00 +7°C° 0 mm 4 mps 741 mmHg 82%
    11:00 +8°C° 0 mm 4 mps 741 mmHg 76%
    12:00 +10°C° 0 mm 4 mps 741 mmHg 72%
    13:00 +10°C° 0 mm 4 mps 741 mmHg 69%
    14:00 +11°C° 0 mm 4 mps 741 mmHg 65%
    15:00 +10°C° 0 mm 4 mps 741 mmHg 72%
    16:00 +9°C° 0 mm 3 mps 741 mmHg 78%
    17:00 +8°C° 0 mm 3 mps 741 mmHg 85%
    18:00 +8°C° 0.2 mm 3 mps 741 mmHg 86%
    19:00 +8°C° 0.2 mm 4 mps 741 mmHg 88%
    20:00 +8°C° 0.2 mm 4 mps 741 mmHg 89%
    21:00 +8°C° 0 mm 4 mps 741 mmHg 87%
    22:00 +8°C° 0 mm 5 mps 741 mmHg 85%
    23:00 +8°C° 0 mm 5 mps 741 mmHg 83%
    Show more